Location: Akdamlar
(36.8729°N, 30.5187°E)
Time: 19:51:50
(UTC+00:00)

Resurs 01 Rocket - Pass Details

Date: 18 September 2020
Orbit: 633 x 645 km, 98.0° (Epoch: 26 October)

Event Time Altitude Azimuth Distance (km) Brightness Sun altitude
Exits shadow 17:41:41 15° 38° (NE) 1,715 3.6 -20.7°
Drops below altitude 10° 17:43:02 10° 23° (NNE) 2,048 4.2 -20.9°
Sets 17:45:45 0° 6° (N) 2,961 5.2 -21.5°
